Location: Henderson
(36.0400°N, 114.9810°W)
Time: 20:25:22
(UTC-07:00)

Daily predictions for brighter satellites

Satellite Brightness Start Highest point End
(mag) Time Altitude Azimuth Time Altitude Azimuth Time Altitude Azimuth
NOAA 12 4.1 19:12:44 10° SSE 19:18:03 80° ENE 19:23:21 10° N
Cosmos 2278 Rocket 2.4 19:12:31 10° SSW 19:18:11 80° WNW 19:23:53 10° NNE
ATLAS 5 CENTAUR R/B 2.4 19:16:12 10° S 19:20:21 34° ESE 19:24:45 10° NE
Cosmos 1125 Rocket 3.8 19:16:01 10° S 19:20:56 45° ESE 19:25:54 10° NNE
Meteor 1-22 Rocket 4.5 19:16:09 10° S 19:21:59 89° WNW 19:28:03 10° N
SeaSat 1 3.2 19:17:58 10° ESE 19:22:22 34° ENE 19:26:47 10° N
Cosmos-2242 4.5 19:21:10 10° SE 19:23:52 17° E 19:26:33 10° NE
HJ-1C 4.0 19:23:55 10° SE 19:27:05 38° ENE 19:30:17 10° N
Cosmos 2344 4.2 19:21:49 10° SW 19:29:25 64° NW 19:37:47 10° NNE
SJ-6B 2.6 19:28:11 10° SSE 19:31:54 75° ENE 19:35:38 10° N
H-2A R/B 3.4 19:30:01 10° SE 19:33:34 35° ENE 19:37:10 10° N
SL-27 R/B 3.5 19:32:17 10° NNW 19:35:48 52° WSW 19:39:20 10° S
Cosmos 2297 3.7 19:30:56 10° S 19:36:34 65° ESE 19:42:15 10° NNE
Resurs 01 Rocket 2.1 19:33:56 10° SE 19:38:03 41° ENE 19:42:13 10° N
ISS -3.9 19:37:51 10° SW 19:41:05 87° SE 19:44:21 10° NE
Meteor 1-29 4.4 19:46:54 10° NE 19:49:23 18° E 19:50:30 16° ESE
FengYun 1-2 T 4.2 19:44:42 10° SSE 19:50:15 80° ENE 19:55:54 10° N
Cosmos 2082 Rocket 2.5 19:45:51 10° N 19:51:20 47° ENE 19:56:37 11° SE
FREGAT/IRIS 4.2 19:49:02 10° S 19:51:56 39° W 19:54:50 10° NNW
Cosmos 1605 Rocket 4.2 19:47:37 10° S 19:53:53 81° W 20:00:17 10° N
H-II Stage 2 2.7 19:54:11 10° SW 19:55:44 18° S 19:56:27 16° SSE
Cosmos 2100 Rocket 4.3 19:52:06 10° SSE 19:58:01 44° E 20:04:00 10° NNE
COSMOS 2487 2.8 19:54:56 10° N 19:58:22 44° ENE 20:00:44 18° SE
Cosmos 1271 Rocket 3.2 19:54:48 10° SSE 19:58:33 40° E 20:02:20 10° NNE
Cosmos 1758 3.4 19:56:30 10° S 20:00:27 77° W 20:04:27 10° N
Cosmos 1953 2.6 20:02:42 10° SSW 20:06:45 71° W 20:10:48 10° N
Cosmos 1674 2.8 20:04:51 10° N 20:08:33 51° E 20:11:14 17° SSE
Cosmos 372 Rocket 4.0 20:03:31 10° SSW 20:08:37 83° WNW 20:13:48 10° NNE
Cosmos 1818 3.7 20:05:06 10° NNW 20:10:33 79° WSW 20:15:46 11° SSE
Cosmos 1269 Rocket 3.9 20:05:26 10° NNW 20:10:44 75° ENE 20:15:54 11° SSE
BREEZE-M DEB (TANK) 2.7 20:08:54 10° SW 20:11:49 86° SE 20:20:30 10° ENE
Lacrosse 5 4.5 20:09:51 10° WNW 20:13:10 17° NNW 20:16:30 10° N
Resurs 1-3 3.5 20:08:53 10° SSE 20:13:15 90° WSW 20:17:39 10° NNW
Cosmos 158 Rocket 3.9 20:09:37 10° NNW 20:14:47 68° ENE 20:18:58 16° SSE
Cosmos 1408 Rocket 3.5 20:11:19 10° N 20:15:48 68° E 20:19:55 12° SSE
Meteor 1-4 Rocket 3.9 20:12:48 10° SSW 20:16:05 40° WNW 20:19:23 10° N
Cosmos 1939 Rocket 3.9 20:18:51 28° ENE 20:18:58 28° ENE 20:22:31 10° NNE
Cosmos 1802 Rocket 4.0 20:15:57 10° SSE 20:21:52 54° E 20:27:51 10° NNE
Helios 1B rocket 2.3 20:17:52 10° NNE 20:22:00 69° ESE 20:26:04 10° S
TIMED 4.4 20:19:55 10° S 20:24:13 61° ESE 20:28:32 10° NNE
USA 215 3.4 20:18:56 10° NE 20:25:10 46° SE 20:31:22 10° SSW
Cosmos 1842 Rocket 3.9 20:27:31 39° ESE 20:27:48 40° E 20:31:55 10° NNE
Lacrosse 5 rocket 1.7 20:25:57 10° NNW 20:29:37 40° NE 20:29:53 39° NE
Spot 2 Rocket 4.2 20:27:22 10° S 20:32:21 55° W 20:37:22 10° NNW
CZ-2D R/B 3.9 20:29:23 10° S 20:33:10 54° W 20:36:59 10° NNW
Abrixas 4.0 20:35:51 10° WNW 20:38:13 28° SW 20:38:13 28° SW
Cosmos 494 Rocket 4.5 20:34:04 10° N 20:38:50 38° ENE 20:39:06 38° ENE
Cosmos 2369 Rocket 4.3 20:43:23 12° NE 20:43:23 12° NE 20:43:44 10° NE
Cosmos 2061 Rocket 4.0 20:32:52 10° S 20:39:15 84° E 20:45:42 10° N
Helios 1A 3.0 20:39:35 30° S 20:41:33 77° WSW 20:45:45 10° NNW
Cosmos 1184 Rocket 4.4 20:40:03 10° N 20:41:45 26° NNE 20:41:45 26° NNE
Cosmos 1459 Rocket 4.0 20:37:13 10° S 20:43:30 83° W 20:49:42 10° N
Timation 2 Rocket 4.0 20:41:38 10° NNW 20:47:52 74° WSW 20:51:22 26° S
Envisat 2.8 20:48:55 45° SSE 20:50:31 80° ENE 20:55:37 10° N
Cosmos 2173 Rocket 4.2 20:45:45 10° SSW 20:51:53 73° W 20:58:10 10° N
Gblst 52 Del rocket 4.1 20:45:56 10° SW 20:52:04 83° SE 20:54:40 33° NE
GPS 2-05 Rocket1 3.6 20:51:03 10° W 20:53:50 52° W 20:53:50 52° W
Cosmos 1833 Rocket 3.3 20:49:20 10° NNW 20:54:48 53° WSW 20:58:19 22° S
Cosmos 1470 4.4 20:51:48 10° SSW 20:55:28 35° W 20:59:08 10° NNW
DASH 3.7 20:44:21 10° W 20:55:47 43° SSW 20:56:27 40° S
Cosmos 1864 Rocket 4.5 20:56:06 44° SSE 20:57:57 60° E 21:04:09 10° NNE
Meteor 2-17 Rocket 4.4 20:53:17 10° S 20:59:26 88° W 21:05:37 10° N
SeaSat 1 4.3 20:55:42 10° SSW 20:59:51 27° WSW 21:04:02 10° NW
ERS-1 Rocket 3.3 21:03:15 50° NE 21:03:15 50° NE 21:07:28 10° N
ATLAS 5 CENTAUR R/B 3.9 21:01:05 10° WSW 21:05:02 26° NW 21:09:15 10° N
Cosmos 1356 Rocket 4.4 21:04:00 10° N 21:06:40 39° N 21:06:40 39° N
H-2A R/B 4.2 21:11:38 14° NNE 21:11:38 14° NNE 21:12:44 10° NNE
OAO 2 Rocket 3.7 21:05:00 10° WSW 21:09:17 53° SSW 21:09:17 53° SSW
Cosmos 1340 Rocket 4.2 21:09:33 10° NNW 21:13:11 34° W 21:13:50 32° WSW
Resurs 01 Rocket 4.5 21:12:10 10° SW 21:14:42 15° W 21:17:13 10° WNW
ISS -0.8 21:16:14 10° WNW 21:17:57 13° NNW 21:18:08 13° NNW
Cosmos 1725 Rocket 4.2 21:31:58 45° SSW 21:33:52 68° W 21:40:03 10° N
ARGOS 4.5 21:36:46 30° NNE 21:36:46 30° NNE 21:39:37 10° N
Cosmos 2082 Rocket 4.4 21:30:55 10° NW 21:34:59 20° W 21:38:32 12° SW
USA 215 4.1 22:01:56 10° NNE 22:08:06 47° NW 22:14:16 10° WSW
Cosmos 2369 Rocket 4.1 22:25:00 24° NNW 22:25:00 24° NNW 22:27:47 10° N
